Flag for Norway Weather past 2 weeks in Sandnessjøen, Norway

Now
28 °F

Chilly.


Feels Like: 28 °F
Forecast: 42 / 47 °F
Wind: 2 mph from Southwest

Location: Mosjoen Kjaerstad

Current Time: Sep 23, 2014 at 4:44:20 AM

Latest Report: Sep 23, 2014 at 4:00 AM


Visibility: N/A

Pressure: 30.11 "Hg

Humidity: 97%

Dew point: 27 °F

Location of SandnessjøenLocation

Historic Weather in Sandnessjøen — Graph

°F

Sandnessjøen temperature yesterday

Maximum temperature yesterday: 47 °F (at 4:00 PM)
Minimum temperature yesterday: 30 °F (at 11:00 PM)
Average temperature yesterday: 37 °F

Past Weeks' High & Low Weather Summary

 TemperatureHumidityPressure
High69 °F (Sep 8, 2:00 PM)97% (Sep 13, 6:00 AM)30.55 "Hg (Sep 13, 6:00 AM)
Low27 °F (Sep 23, 3:00 AM)38% (Sep 14, 3:00 PM)29.66 "Hg (Sep 21, 6:00 AM)
Average49 °F85%30.14 "Hg
* Reported Sep 8 3:00 AM — Sep 23 3:00 AM, Sandnessjøen, Weather by CustomWeather, © 2014

Note: Actual official high and low records may vary slightly from our data, if they occured in-between our weather recording intervals... More about our weather records

Advertising

Sandnessjøen weather history for previous 24 hours

 ConditionsComfort  
Time TempWeatherWind HumidityBarometerVisibility
3:00 AM
Sep 23
27 °FChilly.2 mph97%30.11 "HgN/A
2:00 AM28 °FChilly.2 mph96%30.11 "HgN/A
1:00 AM29 °FChilly.2 mph96%30.12 "HgN/A
12:00 AM29 °FChilly.2 mph95%30.12 "HgN/A
11:00 PM
Sep 22
30 °FChilly.2 mph93%30.11 "HgN/A
10:00 PM32 °FChilly.1 mph93%30.11 "HgN/A
9:00 PM33 °FChilly.2 mph89%30.10 "HgN/A
8:00 PM35 °FChilly.2 mph86%30.09 "HgN/A
7:00 PM38 °FChilly.No wind79%30.09 "HgN/A
6:00 PM43 °FQuite cool.2 mph64%30.08 "HgN/A
5:00 PM46 °FCool.2 mph57%30.08 "HgN/A
4:00 PM47 °FCool.3 mph53%30.08 "HgN/A
3:00 PM46 °FCool.3 mph56%30.09 "HgN/A
2:00 PM45 °FCool.2 mph64%30.09 "HgN/A
1:00 PM47 °FCool.1 mph63%30.09 "HgN/A
12:00 PM42 °FQuite cool.2 mph87%30.10 "HgN/A
11:00 AM39 °FChilly.1 mph92%30.11 "HgN/A
10:00 AM38 °FChilly.1 mph95%30.10 "HgN/A
9:00 AM36 °FChilly.1 mph96%30.10 "HgN/A
8:00 AM35 °FChilly.2 mph96%30.10 "HgN/A
7:00 AM34 °FChilly.2 mph96%30.10 "HgN/A
6:00 AM33 °FChilly.2 mph96%30.09 "HgN/A
5:00 AM33 °FChilly.2 mph95%30.09 "HgN/A
4:00 AM32 °FChilly.2 mph95%30.11 "HgN/A
Weather by CustomWeather, © 2014

See weather overviewHow to use our weather pages